Weather History for Ponta Delgada, Azores

Change the Weather History Date:

Sunday, August 19, 2012

  Actual Average (LPAZ) Record (LPAZ)
Temperature  
Mean Temperature 68 °F -  
Max Temperature 73 °F 76 °F 84 °F (2013)
Min Temperature 62 °F 67 °F 62 °F (2012)
Cooling Degree Days 2    
Growing Degree Days 18 (Base 50)    
Moisture  
Dew Point 63 °F    
Average Humidity 80    
Maximum Humidity 94    
Minimum Humidity 68    
Precipitation  
Precipitation 0.04 in - - ()
Sea Level Pressure  
Sea Level Pressure 30.01 in    
Wind  
Wind Speed 5 mph ()    
Max Wind Speed 20 mph    
Max Gust Speed 23 mph    
Visibility 7.4 miles    
Events Rain    
Averages and records for this station are not official NWS values.
T = Trace of Precipitation, MM = Missing Value Source: Averaged Metar Reports

Daily Weather History Graph

Daily Weather History Graph

Search for Another Location

Airport:

Trip Planner

Search our weather history database for the weather conditions in past years. The results will help you decide how hot, cold, wet, or windy it might be!

Date:

Astronomy

Aug. 19, 2012 Rise Set
Actual Time 7:02 AM AZOST 8:29 PM AZOST
Civil Twilight 6:34 AM AZOST 8:57 PM AZOST
Nautical Twilight 6:01 AM AZOST 9:30 PM AZOST
Astronomical Twilight 5:26 AM AZOST 10:05 PM AZOST
Moon 9:01 AM AZOST (8/19) 9:17 PM AZOST (8/19)
Length of Visible Light 14h 23m
Length of Day
13h 27m
Waxing Crescent, 4% of the Moon is Illuminated
Aug 19
Waxing Crescent
Aug 24
First Quarter
Aug 31
Full
Sep 8
Last Quarter
Sep 16
New

Hourly Weather History & Observations

Time (AZOST) Temp. Dew Point Humidity Pressure Visibility Wind Dir Wind Speed Gust Speed Precip Events Conditions
12:00 AM 67 °F 62 °F 79% 30.06 in 19 mi Calm Calm - -   Scattered Clouds
12:00 AM 66.2 °F 60.8 °F 83% 30.04 in 6.2 mi Variable 1.2 mph - N/A   Partly Cloudy
12:30 AM 66.2 °F 60.8 °F 83% 30.04 in 6.2 mi Variable 1.2 mph - N/A   Partly Cloudy
1:00 AM 64.4 °F 60.8 °F 88% 30.04 in 6.2 mi Variable 1.2 mph - N/A   Partly Cloudy
1:30 AM 64.4 °F 60.8 °F 88% 30.04 in 6.2 mi North 2.3 mph - N/A   Partly Cloudy
2:00 AM 64.4 °F 60.8 °F 88% 30.04 in 6.2 mi North 2.3 mph - N/A   Partly Cloudy
2:30 AM 64.4 °F 60.8 °F 88% 30.04 in 6.2 mi Variable 1.2 mph - N/A   Partly Cloudy
3:00 AM 64 °F 61 °F 85% 30.04 in 19 mi NNE 2.2 mph - -   Scattered Clouds
3:00 AM 64.4 °F 60.8 °F 88% 30.01 in 6.2 mi NNE 2.3 mph - N/A   Partly Cloudy
3:30 AM 62.6 °F 59.0 °F 88% 30.01 in 6.2 mi North 2.3 mph - N/A   Partly Cloudy
4:00 AM 62.6 °F 59.0 °F 88% 30.01 in 6.2 mi NNW 1.2 mph - N/A   Partly Cloudy
5:00 AM 62.6 °F 59.0 °F 88% 30.01 in 6.2 mi NNW 1.2 mph - N/A   Partly Cloudy
5:30 AM 62.6 °F 59.0 °F 88% 30.01 in 6.2 mi NW 2.3 mph - N/A   Partly Cloudy
6:00 AM 65 °F 61 °F 84% 30.05 in 19 mi Calm Calm - -   Scattered Clouds
6:00 AM 62.6 °F 59.0 °F 88% 30.01 in 6.2 mi NW 2.3 mph - N/A   Partly Cloudy
6:30 AM 62.6 °F 59.0 °F 88% 30.01 in 6.2 mi North 1.2 mph - N/A   Partly Cloudy
7:00 AM 62.6 °F 60.8 °F 94% 30.04 in 6.2 mi North 1.2 mph - N/A   Partly Cloudy
7:30 AM 64.4 °F 60.8 °F 88% 30.04 in 6.2 mi Variable 1.2 mph - N/A   Partly Cloudy
8:00 AM 64.4 °F 62.6 °F 94% 30.04 in 6.2 mi Variable 1.2 mph - N/A   Partly Cloudy
8:30 AM 66.2 °F 62.6 °F 88% 30.04 in 6.2 mi South 4.6 mph - N/A   Partly Cloudy
9:00 AM 69.8 °F 62.6 °F 78% 30.04 in 6.2 mi South 5.8 mph - N/A   Partly Cloudy
9:30 AM 69.8 °F 62.6 °F 78% 30.04 in 6.2 mi SSE 4.6 mph - N/A   Partly Cloudy
10:00 AM 69.8 °F 62.6 °F 78% 30.04 in 6.2 mi SSE 5.8 mph - N/A   Partly Cloudy
10:30 AM 69.8 °F 64.4 °F 83% 30.04 in 6.2 mi SSE 6.9 mph - N/A   Partly Cloudy
11:00 AM 71.6 °F 62.6 °F 73% 30.04 in 6.2 mi SSE 8.1 mph - N/A   Partly Cloudy
11:30 AM 71.6 °F 62.6 °F 73% 30.04 in 6.2 mi SSE 10.4 mph - N/A   Partly Cloudy
12:00 PM 71 °F 64 °F 71% 30.06 in 16 mi SE 8.9 mph - -   Partly Cloudy
12:00 PM 71.6 °F 62.6 °F 73% 30.04 in 6.2 mi SE 10.4 mph - N/A   Partly Cloudy
12:30 PM 71.6 °F 62.6 °F 73% 30.04 in 6.2 mi SE 10.4 mph - N/A   Partly Cloudy
1:00 PM 71.6 °F 62.6 °F 73% 30.04 in 6.2 mi SE 11.5 mph - N/A   Partly Cloudy
1:30 PM 73.4 °F 64.4 °F 73% 30.04 in 6.2 mi SE 11.5 mph - N/A   Scattered Clouds
2:00 PM 73.4 °F 64.4 °F 73% 30.04 in 6.2 mi ESE 11.5 mph - N/A   Scattered Clouds
2:30 PM 73.4 °F 64.4 °F 73% 30.01 in 6.2 mi ESE 11.5 mph - N/A   Scattered Clouds
3:00 PM 72 °F 64 °F 68% 30.03 in 16 mi ESE 13.4 mph - -   Scattered Clouds
3:00 PM 71.6 °F 62.6 °F 73% 30.01 in 6.2 mi ESE 10.4 mph - N/A   Partly Cloudy
3:30 PM 73.4 °F 62.6 °F 69% 30.01 in 6.2 mi ESE 10.4 mph - N/A   Partly Cloudy
4:00 PM 73.4 °F 62.6 °F 69% 30.01 in 6.2 mi ESE 12.7 mph - N/A   Scattered Clouds
4:30 PM 73.4 °F 62.6 °F 69% 29.98 in 6.2 mi ESE 12.7 mph - N/A   Partly Cloudy
5:00 PM 71.6 °F 62.6 °F 73% 29.98 in 6.2 mi ESE 13.8 mph - N/A   Partly Cloudy
5:30 PM 71.6 °F 62.6 °F 73% 29.98 in 6.2 mi ESE 13.8 mph - N/A   Partly Cloudy
6:00 PM 72 °F 64 °F 71% 30.00 in 14 mi ESE 15.7 mph - -   Scattered Clouds
6:00 PM 71.6 °F 62.6 °F 73% 29.98 in 6.2 mi ESE 15.0 mph - N/A   Partly Cloudy
6:30 PM 71.6 °F 62.6 °F 73% 29.95 in 6.2 mi ESE 13.8 mph - N/A   Partly Cloudy
7:00 PM 71.6 °F 62.6 °F 73% 29.95 in 6.2 mi ESE 12.7 mph - N/A   Partly Cloudy
7:30 PM 71.6 °F 64.4 °F 78% 29.95 in 6.2 mi ESE 12.7 mph - N/A   Partly Cloudy
8:00 PM 71.6 °F 64.4 °F 78% 29.95 in 6.2 mi ESE 12.7 mph - N/A   Partly Cloudy
8:30 PM 71.6 °F 66.2 °F 83% 29.95 in 5.6 mi ESE 13.8 mph - N/A Rain Light Rain
9:00 PM 70 °F 68 °F 90% 29.96 in 5 mi ESE 20.1 mph - - Rain Light Rain
9:00 PM 71.6 °F 66.2 °F 83% 29.95 in 5.6 mi East 12.7 mph - N/A Rain Light Rain
9:30 PM 71.6 °F 66.2 °F 83% 29.95 in 6.2 mi East 12.7 mph - N/A Rain Light Rain
10:00 PM 69.8 °F 66.2 °F 88% 29.92 in 6.2 mi East 13.8 mph - N/A   Scattered Clouds
10:30 PM 69.8 °F 66.2 °F 88% 29.92 in 6.2 mi East 12.7 mph - N/A   Partly Cloudy
11:00 PM 71.6 °F 66.2 °F 83% 29.92 in 6.2 mi East 12.7 mph - N/A   Mostly Cloudy
11:30 PM 71.6 °F 66.2 °F 83% 29.92 in 6.2 mi East 11.5 mph 23.0 mph N/A Rain Light Rain Showers